FLOCK 3P-34 (41988 NORAD) Tracking and Keplerian Element Data

This shows tracking and keplerian element data for the satellite.

Feedback or suggestion? Click here.




ElementValue
Catalog41988
NameFLOCK 3P-34
Epoch Orbit32580
Epoch Day359.08845029
Epoch Year2022
RAAN65.3536
Inclination97.2524
Eccentricity0.0004586
Argument of Perigee256.7392
Mean Anonmoly103.3355
Mean Motion15.6177531
Decay Rate0.00231835
L11 41988U 17008AS 22359.08845029 .00231835 00000+0 26117-2 0 9993
L22 41988 97.2524 65.3536 0004586 256.7392 103.3355 15.61775310325800



Live tracking and technical data element details for FLOCK 3P-34 (NORAD 41988). FLOCK 3P-34 can be tracked NOW for your location showing map with azimuth and elevation plus other details from your city location.







IsCatalogInMostPopularTable: catalog: 41988, numindb: 530
Update: records affected: 1



GetName: 41988 FLOCK 3P-34

Hit Count: updated at: Fri, 16 May 2025 10:49:30 GMT